Snowfall_Accumulation
0.0 0.0 0.0 0.0 0.0 0.0 0.0 0.0 0.0 0.0 0.0 0.0 0.0 0.0 0.0 0.0 0.0 0.0 0.0 nan nan nan nan nan nan nan nan nan nan nan nan nan nan nan nan nan nan nan
0.0 0.0 0.0 0.0 0.0 0.0 0.0 0.0 0.0 0.0 0.0 0.0 0.0 0.0 0.0 0.0 0.0 0.0 0.0 nan nan nan nan nan nan nan nan nan nan nan nan nan nan nan nan nan nan nan
0.0 0.0 0.0 0.0 0.0 0.0 0.0 0.0 0.0 0.0 0.0 0.0 0.0 0.0 0.0 0.0 0.0 0.0 0.0 0.0 0.0 nan nan nan nan nan nan nan nan nan nan nan nan nan nan nan nan nan
0.0 0.0 0.0 0.0 0.0 0.0 0.0 0.0 0.0 0.0 0.0 0.0 0.0 0.0 0.0 0.0 0.0 0.0 0.0 0.0 0.0 nan nan nan nan nan nan nan nan nan nan nan nan nan nan nan nan nan
0.0 0.0 0.0 0.0 0.0 0.0 0.0 0.0 0.0 0.0 0.0 0.0 0.0 0.0 0.0 0.0 0.0 0.0 0.0 0.0 0.0 nan nan nan nan nan nan nan nan nan nan nan nan nan nan nan nan nan
0.0 0.0 0.0 0.0 0.0 0.0 0.0 0.0 0.0 0.0 0.0 0.0 0.1 0.4 0.3 0.0 0.0 0.0 0.0 0.0 0.0 0.0 nan nan nan nan nan nan nan nan nan nan nan nan nan nan nan nan
0.0 0.0 0.0 nan nan nan 0.0 0.0 0.0 0.0 0.2 1.1 0.8 0.4 0.3 0.0 0.0 0.0 0.0 0.0 0.0 0.0 0.0 0.0 0.0 0.0 0.0 nan nan nan nan nan nan nan nan nan nan nan
0.0 0.0 0.0 0.0 0.0 nan nan nan nan 0.0 0.8 1.5 1.1 0.1 0.0 0.0 0.0 0.0 0.1 1.1 1.6 0.0 0.0 0.0 0.0 0.0 0.0 0.0 nan nan nan nan nan nan nan nan nan nan
0.0 0.0 0.0 0.0 nan 0.0 nan nan nan nan nan 0.0 0.0 0.0 0.1 0.0 0.4 1.3 0.6 0.6 0.2 0.0 0.0 0.1 0.0 0.1 0.0 0.0 nan nan nan nan nan nan nan nan nan nan
0.0 0.0 0.0 0.0 0.0 0.0 0.0 0.2 0.4 0.3 0.0 0.0 0.0 0.0 0.2 0.1 0.0 0.0 0.1 0.3 0.1 0.0 0.1 2.7 0.0 0.0 0.0 0.0 nan nan nan nan nan nan nan nan nan nan
0.0 0.0 0.0 0.0 nan nan 0.1 1.9 0.1 0.0 nan nan nan nan nan nan nan 0.5 2.3 3.7 0.4 0.1 0.0 0.4 0.0 0.1 0.0 0.0 0.0 nan nan nan nan nan nan nan nan nan
0.0 0.0 nan 0.0 nan nan 0.3 0.0 0.5 0.3 0.1 0.3 0.0 0.0 nan nan nan 0.1 2.7 7.1 4.4 4.0 0.1 2.0 0.1 0.3 2.4 0.0 0.0 0.0 0.0 nan nan nan nan nan nan 0.0
0.0 0.0 0.0 nan nan nan nan 0.0 0.3 0.0 0.0 0.0 0.0 0.0 0.0 0.0 0.0 0.3 0.6 5.3 7.3 6.2 0.0 1.5 4.5 3.1 3.3 3.2 0.0 0.0 0.1 0.1 0.1 0.1 nan nan nan 0.0
0.1 0.0 0.0 nan nan nan nan nan nan nan 0.0 0.0 0.0 0.1 2.4 3.8 2.9 2.6 1.0 1.8 1.8 3.2 1.3 3.0 10.8 5.3 7.2 5.2 3.4 0.1 0.3 0.4 1.4 1.4 1.7 nan nan nan
0.0 0.0 nan nan nan nan nan nan nan 0.5 0.0 0.4 0.4 3.6 5.1 3.6 3.8 3.5 3.1 2.5 2.5 2.2 2.3 3.9 6.3 6.1 4.8 4.9 3.8 3.3 1.4 1.1 2.0 2.7 1.5 0.6 0.1 0.2
nan 1.4 nan 0.0 nan nan 0.0 0.0 0.5 0.0 0.5 0.8 0.7 0.2 0.1 7.1 4.2 3.3 4.8 3.3 4.5 4.1 3.9 4.3 5.1 5.4 7.4 4.3 4.0 3.5 3.7 6.8 2.3 2.2 1.8 1.0 0.3 0.1
nan 0.0 0.0 0.0 0.7 0.0 0.0 0.0 0.0 0.0 1.9 1.7 1.0 0.6 0.3 3.7 4.0 3.7 4.4 4.7 5.9 5.5 4.9 4.8 3.7 3.9 4.5 5.1 4.7 2.0 1.3 2.2 3.5 3.4 1.9 2.5 1.8 0.8
0.0 0.0 0.8 1.1 1.1 0.0 0.0 0.1 0.1 2.0 2.4 4.1 4.5 5.5 4.9 6.3 5.9 6.9 6.5 6.0 6.2 5.5 5.5 5.2 6.5 7.8 6.5 7.1 5.2 2.1 2.2 3.1 3.6 3.0 2.0 1.9 3.1 1.6
0.0 1.9 1.9 1.9 1.9 2.1 2.7 3.8 4.3 3.9 4.5 5.9 8.8 10.6 10.7 9.8 8.5 7.1 7.4 6.8 7.9 6.2 6.8 8.0 10.9 12.8 12.1 10.4 4.8 nan 2.9 3.4 3.9 2.4 1.5 1.3 2.4 3.1
0.0 1.1 3.0 2.5 2.4 3.5 4.2 4.4 4.7 4.3 4.6 6.3 8.8 12.9 14.2 13.4 11.3 11.5 9.2 9.2 9.0 8.8 10.2 13.1 16.8 19.5 18.2 14.8 9.1 7.2 nan 3.3 1.7 2.0 3.2 0.8 0.9 nan
0.1 2.6 2.0 3.0 3.6 4.7 5.1 7.4 6.5 7.0 8.7 11.4 12.3 14.6 14.0 14.1 12.2 10.3 8.7 6.5 nan 9.1 11.5 11.4 13.8 nan 19.4 11.8 9.5 5.3 6.0 nan 1.2 2.6 3.1 2.2 1.8 1.1
0.1 2.2 2.4 3.7 4.8 6.6 7.6 7.2 6.7 7.2 6.3 9.4 8.8 12.2 10.8 12.2 10.3 8.1 5.1 7.3 5.5 7.6 10.4 11.8 10.0 12.8 16.3 12.7 9.8 4.9 4.3 3.3 nan nan nan nan 4.0 7.4
2.3 2.2 3.5 5.3 7.0 8.2 7.7 6.6 6.3 9.1 7.5 10.1 11.4 12.1 10.9 9.9 5.9 5.4 4.9 4.1 5.6 6.5 7.0 7.0 7.3 8.1 8.9 10.2 12.2 7.0 4.3 3.8 3.3 4.4 4.0 nan nan nan
Water_Equivalent
0.00 0.00 0.00 0.00 0.00 0.00 0.00 0.00 0.00 0.00 0.00 0.00 0.00 0.00 0.00 0.00 0.00 0.00 0.00 nan nan nan nan nan nan nan nan nan nan nan nan nan nan nan nan nan nan nan
0.00 0.00 0.00 0.00 0.00 0.00 0.00 0.00 0.00 0.00 0.00 0.00 0.00 0.00 0.00 0.00 0.00 0.00 0.00 nan nan nan nan nan nan nan nan nan nan nan nan nan nan nan nan nan nan nan
0.00 0.00 0.00 0.00 0.00 0.00 0.00 0.00 0.00 0.00 0.00 0.00 0.00 0.00 0.00 0.00 0.00 0.00 0.00 0.00 0.00 nan nan nan nan nan nan nan nan nan nan nan nan nan nan nan nan nan
0.00 0.00 0.00 0.00 0.00 0.00 0.00 0.00 0.00 0.00 0.00 0.00 0.00 0.00 0.00 0.00 0.00 0.00 0.00 0.00 0.00 nan nan nan nan nan nan nan nan nan nan nan nan nan nan nan nan nan
0.00 0.00 0.00 0.00 0.00 0.00 0.00 0.00 0.00 0.00 0.00 0.00 0.00 0.00 0.00 0.00 0.00 0.00 0.00 0.00 0.00 nan nan nan nan nan nan nan nan nan nan nan nan nan nan nan nan nan
0.00 0.00 0.00 0.00 0.00 0.00 0.00 0.00 0.00 0.00 0.00 0.00 0.01 0.06 0.05 0.00 0.00 0.00 0.00 0.00 0.00 0.00 nan nan nan nan nan nan nan nan nan nan nan nan nan nan nan nan
0.00 0.00 0.00 nan nan nan 0.00 0.00 0.00 0.00 0.03 0.16 0.11 0.05 0.04 0.00 0.00 0.00 0.00 0.00 0.00 0.00 0.00 0.00 0.00 0.00 0.00 nan nan nan nan nan nan nan nan nan nan nan
0.00 0.00 0.00 0.00 0.00 nan nan nan nan 0.00 0.12 0.21 0.15 0.02 0.00 0.00 0.00 0.00 0.01 0.14 0.22 0.00 0.00 0.00 0.00 0.00 0.00 0.00 nan nan nan nan nan nan nan nan nan nan
0.00 0.00 0.00 0.00 nan 0.00 nan nan nan nan nan 0.01 0.00 0.00 0.02 0.00 0.05 0.17 0.08 0.08 0.02 0.00 0.01 0.02 0.00 0.01 0.00 0.00 nan nan nan nan nan nan nan nan nan nan
0.00 0.00 0.00 0.00 0.00 0.00 0.00 0.04 0.06 0.04 0.00 0.00 0.00 0.01 0.04 0.02 0.01 0.00 0.02 0.04 0.01 0.00 0.01 0.34 0.00 0.01 0.00 0.00 nan nan nan nan nan nan nan nan nan nan
0.00 0.00 0.00 0.00 nan nan 0.02 0.27 0.01 0.00 nan nan nan nan nan nan nan 0.06 0.28 0.43 0.04 0.01 0.00 0.05 0.00 0.02 0.00 0.00 0.00 nan nan nan nan nan nan nan nan nan
0.00 0.00 nan 0.00 nan nan 0.06 0.00 0.06 0.04 0.02 0.04 0.00 0.00 nan nan nan 0.01 0.34 0.77 0.50 0.44 0.01 0.26 0.02 0.04 0.28 0.00 0.00 0.00 0.00 nan nan nan nan nan nan 0.00
0.00 0.00 0.00 nan nan nan nan 0.00 0.04 0.00 0.00 0.00 0.00 0.00 0.00 0.00 0.00 0.03 0.07 0.60 0.77 0.64 0.00 0.20 0.55 0.38 0.40 0.38 0.00 0.00 0.02 0.02 0.03 0.03 nan nan nan 0.01
0.01 0.00 0.01 nan nan nan nan nan nan nan 0.00 0.00 0.00 0.01 0.24 0.40 0.34 0.31 0.11 0.22 0.22 0.36 0.16 0.38 1.22 0.59 0.76 0.58 0.39 0.01 0.09 0.12 0.26 0.26 0.29 nan nan nan
0.00 0.01 nan nan nan nan nan nan nan 0.06 0.00 0.05 0.04 0.37 0.52 0.38 0.40 0.38 0.37 0.30 0.30 0.28 0.30 0.52 0.78 0.65 0.50 0.51 0.41 0.38 0.21 0.25 0.42 0.46 0.25 0.12 0.03 0.05
nan 0.20 nan 0.00 nan nan 0.00 0.00 0.06 0.00 0.05 0.09 0.08 0.03 0.01 0.72 0.43 0.39 0.52 0.39 0.53 0.50 0.51 0.56 0.59 0.58 0.77 0.48 0.46 0.42 0.47 0.82 0.39 0.42 0.35 0.28 0.11 0.02
nan 0.00 0.00 0.00 0.08 0.00 0.00 0.00 0.00 0.00 0.19 0.18 0.11 0.07 0.04 0.38 0.42 0.42 0.51 0.55 0.63 0.59 0.51 0.53 0.44 0.45 0.54 0.61 0.56 0.26 0.17 0.30 0.50 0.51 0.33 0.41 0.42 0.24
0.00 0.00 0.09 0.11 0.11 0.01 0.01 0.01 0.01 0.20 0.25 0.42 0.46 0.56 0.51 0.64 0.61 0.72 0.70 0.64 0.65 0.57 0.57 0.54 0.68 0.82 0.73 0.76 0.61 0.25 0.29 0.40 0.51 0.50 0.38 0.29 0.47 0.37
0.00 0.19 0.19 0.20 0.19 0.21 0.27 0.38 0.44 0.39 0.46 0.60 0.90 1.09 1.10 1.00 0.88 0.74 0.78 0.72 0.82 0.64 0.70 0.83 1.11 1.31 1.23 1.04 0.52 nan 0.37 0.44 0.54 0.34 0.27 0.23 0.41 0.59
0.01 0.12 0.30 0.26 0.24 0.35 0.43 0.44 0.47 0.43 0.46 0.64 0.90 1.32 1.47 1.38 1.17 1.19 0.96 0.96 0.93 0.90 1.05 1.36 1.74 2.01 1.85 1.49 0.92 0.80 nan 0.44 0.23 0.27 0.44 0.14 0.17 nan
0.01 0.26 0.21 0.30 0.37 0.47 0.51 0.76 0.66 0.71 0.89 1.16 1.25 1.50 1.44 1.46 1.26 1.06 0.90 0.67 nan 0.93 1.18 1.17 1.42 nan 2.03 1.21 0.98 0.57 0.73 nan 0.19 0.32 0.39 0.27 0.27 0.18
0.01 0.22 0.25 0.37 0.48 0.67 0.78 0.74 0.67 0.73 0.64 0.95 0.89 1.25 1.11 1.26 1.06 0.83 0.52 0.74 0.56 0.78 1.06 1.21 1.03 1.32 1.70 1.31 1.00 0.51 0.46 0.40 nan nan nan nan 0.49 0.86
0.24 0.22 0.36 0.54 0.72 0.84 0.78 0.67 0.63 0.92 0.76 1.03 1.16 1.24 1.12 1.02 0.60 0.55 0.50 0.41 0.57 0.67 0.71 0.72 0.75 0.82 0.91 1.05 1.25 0.72 0.45 0.40 0.36 0.48 0.49 nan nan nan
SL_Ratio
nan nan nan nan nan nan nan nan nan nan nan nan nan nan nan nan nan nan nan nan nan nan nan nan nan nan nan nan nan nan nan nan nan nan nan nan nan nan
nan nan nan nan nan nan nan nan nan nan nan nan nan nan nan nan nan nan nan nan nan nan nan nan nan nan nan nan nan nan nan nan nan nan nan nan nan nan
nan nan nan nan nan nan nan nan nan nan nan nan nan nan nan nan nan nan nan nan nan nan nan nan nan nan nan nan nan nan nan nan nan nan nan nan nan nan
nan nan nan nan nan nan nan nan nan nan 5.0 nan nan nan nan nan nan nan nan nan nan nan nan nan nan nan nan nan nan nan nan nan nan nan nan nan nan nan
nan nan nan nan nan nan nan nan nan nan nan nan 6.8 nan 5.0 7.5 nan nan nan nan nan nan nan nan nan nan nan nan nan nan nan nan nan nan nan nan nan nan
nan nan nan nan nan nan nan nan nan nan nan nan 6.8 6.7 6.9 5.0 5.8 7.5 nan nan nan nan nan nan nan nan nan nan nan nan nan nan nan nan nan nan nan nan
nan nan nan nan nan nan nan nan nan 5.0 6.7 7.0 7.3 7.3 6.9 6.0 5.0 nan 7.5 nan 5.0 6.8 6.3 6.2 7.5 nan nan nan nan nan nan nan nan nan nan nan nan nan
nan nan nan nan nan nan nan nan nan 5.0 6.8 7.3 7.3 7.6 7.1 nan 6.8 8.0 7.5 8.2 7.2 5.0 6.8 nan 5.0 nan nan nan nan nan nan nan nan nan nan nan nan nan
nan nan nan nan nan nan nan nan nan nan nan 7.1 6.7 5.0 7.9 7.5 7.6 7.8 7.0 7.4 7.8 6.7 7.3 7.7 6.3 6.6 nan nan nan nan nan nan nan nan nan nan nan nan
nan nan nan 5.0 6.7 nan nan 5.5 6.3 6.3 nan nan 6.3 6.5 6.7 6.3 6.5 6.5 7.8 7.9 7.3 6.7 6.5 8.0 5.6 6.5 nan nan nan nan nan nan nan nan nan nan nan nan
nan nan nan 5.0 nan nan 5.4 7.0 7.1 nan nan nan nan nan nan nan nan 7.2 8.2 8.6 8.6 8.0 6.1 6.6 6.7 6.1 nan 6.7 5.4 nan nan nan nan nan nan nan nan nan
nan nan nan nan nan nan 6.1 6.3 8.2 8.1 7.3 7.1 7.9 nan nan nan nan 6.9 7.9 9.2 8.9 9.0 8.6 7.7 7.8 7.3 8.6 nan 5.9 6.0 nan nan nan nan nan nan nan 5.0
nan nan nan nan nan nan nan nan 8.0 6.7 6.7 nan nan nan nan 6.4 7.1 7.9 7.9 8.9 9.4 9.6 7.5 7.2 8.2 8.2 8.3 8.5 10.0 6.0 4.4 4.3 4.2 4.6 nan nan nan 6.0
6.9 6.7 6.8 nan nan nan nan nan nan nan nan 7.5 7.5 8.3 9.8 9.5 8.4 8.3 8.3 8.1 8.0 8.9 7.9 8.0 8.9 9.0 9.4 8.9 8.8 6.4 4.1 3.5 5.3 5.4 5.9 nan nan nan
7.5 5.0 nan nan nan nan nan nan nan 8.1 8.2 9.1 8.7 9.8 9.8 9.4 9.6 9.1 8.4 8.3 8.2 8.0 7.7 7.5 8.2 9.3 9.6 9.6 9.3 8.5 6.8 4.5 4.7 5.9 5.9 5.5 4.2 4.2
nan 6.8 nan nan nan nan nan nan 8.1 8.1 8.8 9.0 8.9 8.2 8.0 9.8 9.7 8.5 9.1 8.5 8.5 8.2 7.7 7.7 8.6 9.3 9.6 9.0 8.6 8.4 7.9 8.4 5.8 5.3 5.1 3.7 3.1 2.9
nan nan nan nan 8.3 nan nan nan nan 8.6 9.7 9.6 9.0 9.1 8.6 9.8 9.7 8.7 8.7 8.4 9.3 9.4 9.5 9.1 8.4 8.6 8.4 8.3 8.5 7.7 7.4 7.4 6.9 6.5 5.9 5.9 4.2 3.2
5.0 nan 9.7 9.8 9.8 7.9 8.1 8.9 9.4 9.9 9.7 9.7 9.8 9.8 9.7 9.8 9.7 9.5 9.3 9.2 9.5 9.6 9.6 9.6 9.7 9.6 9.0 9.3 8.5 8.5 7.7 7.7 7.1 6.0 5.3 6.4 6.5 4.2
nan 9.9 9.9 9.8 9.9 9.9 9.9 9.9 9.9 9.9 9.7 9.8 9.8 9.7 9.7 9.8 9.7 9.5 9.4 9.5 9.7 9.7 9.7 9.6 9.8 9.8 9.8 10.0 9.3 nan 8.0 7.7 7.3 6.9 5.6 5.6 5.8 5.2
8.1 9.7 9.9 9.9 9.9 9.9 9.9 9.9 9.8 9.8 9.8 9.8 9.7 9.7 9.7 9.7 9.7 9.6 9.6 9.6 9.7 9.8 9.8 9.7 9.7 9.7 9.8 9.9 9.9 9.0 nan 7.5 7.4 7.6 7.2 5.9 5.3 nan
8.1 9.9 9.8 9.9 9.9 9.9 9.9 9.8 9.8 9.9 9.7 9.8 9.8 9.7 9.7 9.7 9.7 9.7 9.8 9.8 nan 9.8 9.8 9.8 9.7 nan 9.6 9.7 9.7 9.3 8.2 nan 6.2 8.1 7.8 8.2 6.6 6.0
8.3 9.9 9.9 9.9 9.9 9.8 9.8 9.8 9.9 9.8 9.9 9.8 9.8 9.8 9.8 9.7 9.7 9.8 9.8 9.8 9.8 9.8 9.7 9.8 9.8 9.7 9.6 9.7 9.8 9.6 9.4 8.4 nan nan nan nan 8.0 8.6
9.9 9.9 9.9 9.9 9.8 9.8 9.8 9.9 9.9 9.8 9.9 9.8 9.8 9.8 9.7 9.7 9.8 9.8 9.8 9.8 9.8 9.8 9.8 9.8 9.8 9.8 9.8 9.7 9.7 9.7 9.7 9.6 9.2 9.4 8.1 nan nan nan